Location: Agua Amarilla
(10.0342°N, 66.8490°W)
Time: 16:49:34
(UTC+00:00)

USA 267 - Pass Details

Date: 26 June 2022
Orbit: 1102 x 1106 km, 123.0° (Epoch: 18 July)

Event Time Altitude Azimuth Distance (km) Brightness Sun altitude
Rises 23:04:11 0° 53° (NE) 3,911 5.9 -3.7°
Reaches altitude 10° 23:06:53 10° 61° (ENE) 2,954 5.2 -4.3°
Maximum altitude 23:12:45 36° 125° (SE) 1,675 3.8 -5.6°
Drops below altitude 10° 23:18:37 10° 190° (S) 2,957 5.4 -6.9°
Sets 23:21:19 0° 198° (SSW) 3,915 6.1 -7.5°
